Location: Vancouver
(49.2500°N, 123.1330°W)
Time: 01:17:52
(UTC-07:00)

ISS - All Passes

Search period start: 26 June 2016 00:00
Search period end: 06 July 2016 00:00
Orbit: 402 x 403 km, 51.6° (Epoch: 26 June)

Date Brightness Start Highest point End Pass type
(mag) Time Alt. Az. Time Alt. Az. Time Alt. Az.
26 Jun - 10:26:56 10° SSW 10:29:43 26° SE 10:32:30 10° E daylight
26 Jun - 12:02:39 10° WSW 12:05:56 81° NNW 12:09:13 10° ENE daylight
26 Jun - 13:39:21 10° WNW 13:42:34 54° N 13:45:48 10° E daylight
26 Jun - 15:15:53 10° WNW 15:19:09 77° SSW 15:22:25 10° ESE daylight
26 Jun - 16:52:56 10° W 16:55:12 17° SW 16:57:27 10° S daylight
27 Jun - 09:35:04 10° S 09:37:10 16° SE 09:39:17 10° E daylight
27 Jun - 11:09:55 10° WSW 11:13:11 72° SSE 11:16:27 10° ENE daylight
27 Jun - 12:46:31 10° W 12:49:45 54° N 12:52:58 10° ENE daylight
27 Jun - 14:23:06 10° WNW 14:26:24 78° NNE 14:29:40 10° ESE daylight
27 Jun - 15:59:47 10° W 16:02:38 28° SW 16:05:29 10° SSE daylight
28 Jun - 10:17:20 10° SW 10:20:28 47° SSE 10:23:38 10° ENE daylight
28 Jun - 11:53:40 10° W 11:56:55 61° N 12:00:10 10° ENE daylight
28 Jun - 13:30:20 10° WNW 13:33:36 62° N 13:36:51 10° E daylight
28 Jun - 15:06:52 10° WNW 15:10:00 44° SSW 15:13:08 10° SE daylight
29 Jun - 09:24:56 10° SSW 09:27:49 30° SE 09:30:44 10° E daylight
29 Jun - 11:00:49 10° WSW 11:04:05 75° NNW 11:07:22 10° ENE daylight
29 Jun - 12:37:31 10° WNW 12:40:45 55° N 12:43:58 10° E daylight
29 Jun - 14:14:02 10° WNW 14:17:18 68° SSW 14:20:33 10° ESE daylight
29 Jun - 15:51:18 10° W 15:53:16 15° SW 15:55:14 10° S daylight
30 Jun - 08:32:52 10° S 08:35:14 19° SE 08:37:36 10° E daylight
30 Jun - 10:08:02 10° WSW 10:11:18 81° SSE 10:14:35 10° ENE daylight
30 Jun - 11:44:40 10° W 11:47:53 53° N 11:51:07 10° ENE daylight
30 Jun - 13:21:15 10° WNW 13:24:31 85° NNE 13:27:48 10° ESE daylight
30 Jun - 14:57:59 10° W 15:00:43 24° SW 15:03:25 10° SSE daylight
01 Jul - 07:41:38 10° SSE 07:42:42 11° SE 07:43:46 10° ESE daylight
01 Jul - 09:15:22 10° SW 09:18:33 54° SSE 09:21:46 10° ENE daylight
01 Jul - 10:51:48 10° W 10:55:02 58° N 10:58:16 10° ENE daylight
01 Jul - 12:28:26 10° WNW 12:31:42 66° NNE 12:34:58 10° E daylight
01 Jul - 14:04:59 10° W 14:08:04 38° SSW 14:11:08 10° SE daylight
02 Jul - 08:22:52 10° SW 08:25:52 34° SSE 08:28:52 10° E daylight
02 Jul - 09:58:55 10° W 10:02:11 70° NNW 10:05:27 10° ENE daylight
02 Jul - 11:35:37 10° WNW 11:38:51 56° N 11:42:05 10° E daylight
02 Jul - 13:12:07 10° WNW 13:15:21 60° SSW 13:18:34 10° SE daylight
02 Jul - 14:49:41 10° WSW 14:51:16 13° SW 14:52:51 10° SSW daylight
03 Jul - 07:30:40 10° SSW 07:33:14 21° SE 07:35:47 10° E daylight
03 Jul - 09:06:04 10° WSW 09:09:21 89° SSE 09:12:38 10° ENE daylight
03 Jul - 10:42:45 10° WNW 10:45:58 53° N 10:49:11 10° E daylight
03 Jul - 12:19:17 10° WNW 12:22:34 88° SSW 12:25:51 10° ESE daylight
03 Jul - 13:56:09 10° W 13:58:42 21° SW 14:01:15 10° SSE daylight
04 Jul - 06:39:02 10° SSE 06:40:38 13° SE 06:42:16 10° ESE daylight
04 Jul - 08:13:20 10° SW 08:16:33 61° SSE 08:19:49 10° ENE daylight
04 Jul - 09:49:50 10° W 09:53:04 56° N 09:56:19 10° ENE daylight
04 Jul - 11:26:28 10° WNW 11:29:44 70° NNE 11:33:00 10° E daylight
04 Jul - 13:03:03 10° W 13:06:03 33° SSW 13:09:02 10° SSE daylight
05 Jul - 07:20:45 10° SW 07:23:49 39° SSE 07:26:55 10° ENE daylight
05 Jul - 08:56:56 10° W 09:00:11 65° NNW 09:03:28 10° ENE daylight
05 Jul - 10:33:37 10° WNW 10:36:52 58° N 10:40:06 10° E daylight
05 Jul - 12:10:08 10° WNW 12:13:20 53° SSW 12:16:32 10° SE daylight
05 Jul - 13:48:11 10° WSW 13:49:11 11° SW 13:50:10 10° SSW daylight
